Location: Central Coast
(33.3208°S, 151.2336°E)
Time: 04:40:11
(UTC+10:00)

ISS - Visible Passes

Search period start: 09 April 2020 00:00
Search period end: 19 April 2020 00:00
Orbit: 418 x 423 km, 51.6° (Epoch: 09 April)

Date Brightness Start Highest point End Pass type
(mag) Time Alt. Az. Time Alt. Az. Time Alt. Az.
09 Apr -0.8 05:05:37 10° S 05:06:54 12° SSE 05:08:12 10° SE visible
11 Apr -1.8 05:06:50 10° SSW 05:09:49 27° SE 05:12:47 10° E visible
12 Apr -1.2 04:21:49 16° SSE 04:22:31 17° SSE 04:24:55 10° ESE visible
13 Apr -3.8 05:10:11 20° SW 05:12:25 89° SE 05:15:50 10° NE visible
14 Apr -2.6 04:25:39 44° ESE 04:25:39 44° ESE 04:28:32 10° ENE visible
15 Apr -2.4 05:14:15 23° WNW 05:14:41 23° NW 05:17:27 10° N visible
16 Apr -1.4 04:29:55 17° NNE 04:29:55 17° NNE 04:30:52 10° NNE visible
16 Apr -0.8 19:27:57 10° NNW 19:28:03 11° NNW 19:28:03 11° NNW visible
17 Apr -2.2 18:41:22 10° N 18:43:38 22° NE 18:43:38 22° NE visible
18 Apr -1.6 17:55:30 10° NNE 17:57:03 13° NE 17:58:35 10° E visible
18 Apr -1.7 19:30:13 10° WNW 19:32:06 28° W 19:32:06 28° W visible
